Tiempo cada hora Cayuny

Hoy, 19 Abril, Lunes

Tiempo Temperatura Precipitaciones Viento Presión Humedad
00:00 +8°C° 0 mm 1 mps 752 mmHg 86%
01:00 +8°C° 0 mm 1 mps 752 mmHg 87%
02:00 +7°C° 0 mm 1 mps 752 mmHg 86%
03:00 +7°C° 0 mm 1 mps 752 mmHg 87%
04:00 +7°C° 0 mm 1 mps 752 mmHg 87%
05:00 +6°C° 0 mm 1 mps 751 mmHg 87%
06:00 +8°C° 0 mm 1 mps 752 mmHg 83%
07:00 +8°C° 0 mm 2 mps 752 mmHg 79%
08:00 +9°C° 0 mm 2 mps 752 mmHg 73%
09:00 +11°C° 0 mm 3 mps 752 mmHg 66%
10:00 +12°C° 0 mm 4 mps 751 mmHg 59%
11:00 +13°C° 0 mm 4 mps 751 mmHg 52%
12:00 +13°C° 0 mm 4 mps 751 mmHg 52%
13:00 +13°C° 0 mm 4 mps 751 mmHg 53%
14:00 +13°C° 0 mm 4 mps 751 mmHg 54%
15:00 +12°C° 0 mm 4 mps 751 mmHg 55%
16:00 +12°C° 0 mm 4 mps 751 mmHg 57%
17:00 +12°C° 0 mm 3 mps 751 mmHg 58%
18:00 +11°C° 0 mm 3 mps 751 mmHg 64%
19:00 +9°C° 0 mm 3 mps 751 mmHg 69%
20:00 +8°C° 0 mm 2 mps 751 mmHg 75%
21:00 +7°C° 0 mm 2 mps 751 mmHg 77%
22:00 +7°C° 0 mm 2 mps 751 mmHg 79%
23:00 +6°C° 0 mm 2 mps 751 mmHg 81%

Mañana, 20 Abril, Martes

Tiempo Temperatura Precipitaciones Viento Presión Humedad
00:00 +6°C° 0 mm 2 mps 750 mmHg 82%
01:00 +6°C° 0 mm 2 mps 750 mmHg 83%
02:00 +7°C° 0 mm 1 mps 750 mmHg 85%
03:00 +7°C° 0 mm 1 mps 750 mmHg 86%
04:00 +6°C° 0 mm 2 mps 749 mmHg 87%
05:00 +6°C° 0 mm 2 mps 749 mmHg 88%
06:00 +7°C° 0.1 mm 2 mps 749 mmHg 86%
07:00 +7°C° 0.1 mm 2 mps 749 mmHg 84%
08:00 +8°C° 0.1 mm 2 mps 749 mmHg 82%
09:00 +8°C° 0.3 mm 2 mps 748 mmHg 78%
10:00 +9°C° 0.3 mm 3 mps 748 mmHg 75%
11:00 +10°C° 0.3 mm 3 mps 748 mmHg 71%
12:00 +9°C° 0.2 mm 3 mps 748 mmHg 72%
13:00 +9°C° 0.2 mm 3 mps 747 mmHg 74%
14:00 +9°C° 0.2 mm 3 mps 747 mmHg 76%
15:00 +9°C° 0 mm 2 mps 747 mmHg 73%
16:00 +9°C° 0 mm 2 mps 746 mmHg 70%
17:00 +10°C° 0 mm 2 mps 746 mmHg 67%
18:00 +9°C° 0 mm 2 mps 746 mmHg 71%
19:00 +8°C° 0 mm 2 mps 746 mmHg 74%
20:00 +7°C° 0 mm 2 mps 746 mmHg 78%
21:00 +7°C° 0 mm 2 mps 746 mmHg 80%
22:00 +8°C° 0 mm 1 mps 746 mmHg 82%
23:00 +7°C° 0 mm 1 mps 745 mmHg 84%

Pasado mañana, 21 Abril, Miércoles

Tiempo Temperatura Precipitaciones Viento Presión Humedad
00:00 +7°C° 0 mm 1 mps 745 mmHg 85%
01:00 +7°C° 0 mm 1 mps 745 mmHg 85%
02:00 +6°C° 0 mm 0 mps 745 mmHg 85%
03:00 +6°C° 0 mm 0 mps 744 mmHg 85%
04:00 +6°C° 0 mm 1 mps 744 mmHg 86%
05:00 +6°C° 0 mm 1 mps 744 mmHg 86%
06:00 +7°C° 0 mm 1 mps 744 mmHg 83%
07:00 +8°C° 0 mm 1 mps 744 mmHg 80%
08:00 +8°C° 0 mm 2 mps 744 mmHg 77%
09:00 +9°C° 0.1 mm 2 mps 743 mmHg 70%
10:00 +10°C° 0.1 mm 2 mps 743 mmHg 63%
11:00 +12°C° 0.1 mm 2 mps 743 mmHg 56%
12:00 +12°C° 0.2 mm 3 mps 742 mmHg 56%
13:00 +12°C° 0.2 mm 3 mps 742 mmHg 55%
14:00 +12°C° 0.2 mm 3 mps 742 mmHg 55%
15:00 +12°C° 0.4 mm 3 mps 742 mmHg 59%
16:00 +12°C° 0.4 mm 3 mps 742 mmHg 63%
17:00 +12°C° 0.4 mm 3 mps 742 mmHg 67%
18:00 +10°C° 0.2 mm 3 mps 742 mmHg 72%
19:00 +9°C° 0.2 mm 2 mps 742 mmHg 76%
20:00 +8°C° 0.2 mm 2 mps 742 mmHg 80%
21:00 +8°C° 0 mm 2 mps 742 mmHg 81%
22:00 +7°C° 0 mm 2 mps 742 mmHg 83%
23:00 +7°C° 0 mm 2 mps 742 mmHg 84%

22 Abril, Jueves

Tiempo Temperatura Precipitaciones Viento Presión Humedad
00:00 +7°C° 0 mm 2 mps 742 mmHg 84%
01:00 +7°C° 0 mm 2 mps 742 mmHg 84%
02:00 +7°C° 0 mm 2 mps 742 mmHg 85%
03:00 +6°C° 0 mm 2 mps 742 mmHg 87%
04:00 +6°C° 0 mm 2 mps 742 mmHg 89%
05:00 +5°C° 0 mm 2 mps 742 mmHg 91%
06:00 +7°C° 0.1 mm 2 mps 742 mmHg 88%
07:00 +8°C° 0.1 mm 3 mps 743 mmHg 85%
08:00 +8°C° 0.1 mm 4 mps 743 mmHg 82%
09:00 +10°C° 0.2 mm 4 mps 743 mmHg 75%
10:00 +10°C° 0.2 mm 5 mps 743 mmHg 68%
11:00 +13°C° 0.2 mm 6 mps 743 mmHg 61%
12:00 +11°C° 0.1 mm 6 mps 744 mmHg 61%
13:00 +11°C° 0.1 mm 6 mps 744 mmHg 60%
14:00 +11°C° 0.1 mm 6 mps 744 mmHg 60%
15:00 +10°C° 0 mm 5 mps 745 mmHg 61%
16:00 +11°C° 0 mm 4 mps 745 mmHg 62%
17:00 +10°C° 0 mm 4 mps 745 mmHg 63%
18:00 +9°C° 0.2 mm 3 mps 745 mmHg 68%
19:00 +8°C° 0.2 mm 3 mps 745 mmHg 74%
20:00 +7°C° 0.2 mm 3 mps 745 mmHg 80%
21:00 +7°C° 0.1 mm 3 mps 745 mmHg 78%
22:00 +7°C° 0.1 mm 2 mps 745 mmHg 77%
23:00 +6°C° 0.1 mm 2 mps 745 mmHg 75%

23 Abril, Viernes

Tiempo Temperatura Precipitaciones Viento Presión Humedad
00:00 +6°C° 0 mm 2 mps 745 mmHg 75%
01:00 +5°C° 0 mm 2 mps 745 mmHg 75%
02:00 +4°C° 0 mm 2 mps 745 mmHg 75%
03:00 +4°C° 0 mm 2 mps 745 mmHg 76%
04:00 +4°C° 0 mm 2 mps 745 mmHg 76%
05:00 +4°C° 0 mm 2 mps 745 mmHg 76%
06:00 +4°C° 0 mm 2 mps 745 mmHg 73%
07:00 +4°C° 0 mm 3 mps 746 mmHg 69%
08:00 +4°C° 0 mm 3 mps 746 mmHg 66%
09:00 +5°C° 0 mm 4 mps 746 mmHg 64%
10:00 +6°C° 0 mm 5 mps 746 mmHg 62%
11:00 +6°C° 0 mm 5 mps 746 mmHg 60%
12:00 +6°C° 0.1 mm 5 mps 746 mmHg 59%
13:00 +5°C° 0.1 mm 6 mps 746 mmHg 58%
14:00 +5°C° 0.1 mm 6 mps 746 mmHg 57%
15:00 +5°C° 0.1 mm 6 mps 746 mmHg 60%
16:00 +5°C° 0.1 mm 6 mps 746 mmHg 64%
17:00 +5°C° 0.1 mm 6 mps 745 mmHg 67%
18:00 +4°C° 0.2 mm 6 mps 745 mmHg 72%
19:00 +3°C° 0.2 mm 5 mps 745 mmHg 77%
20:00 +2°C° 0.2 mm 5 mps 745 mmHg 83%
21:00 +2°C° 0 mm 5 mps 746 mmHg 85%
22:00 +1°C° 0 mm 6 mps 746 mmHg 87%
23:00 -1°C° 0 mm 6 mps 746 mmHg 90%

24 Abril, Sábado

Tiempo Temperatura Precipitaciones Viento Presión Humedad
00:00 -1°C° 0.2 mm 6 mps 746 mmHg 92%
01:00 -2°C° 0.2 mm 6 mps 747 mmHg 94%
02:00 -2°C° 0.2 mm 6 mps 747 mmHg 96%
03:00 -1°C° 0.2 mm 5 mps 747 mmHg 93%
04:00 -2°C° 0.2 mm 5 mps 748 mmHg 91%
05:00 -2°C° 0.2 mm 5 mps 748 mmHg 89%
06:00 -1°C° 0 mm 5 mps 748 mmHg 83%
07:00 -1°C° 0 mm 4 mps 749 mmHg 77%
08:00 0°C° 0 mm 4 mps 749 mmHg 71%
09:00 +3°C° 0 mm 4 mps 749 mmHg 62%
10:00 +3°C° 0 mm 5 mps 749 mmHg 53%
11:00 +5°C° 0 mm 5 mps 748 mmHg 45%
12:00 +6°C° 0.1 mm 5 mps 748 mmHg 47%
13:00 +6°C° 0.1 mm 5 mps 748 mmHg 50%
14:00 +6°C° 0.1 mm 5 mps 747 mmHg 52%
15:00 +5°C° 0.4 mm 5 mps 747 mmHg 64%
16:00 +3°C° 0.4 mm 5 mps 746 mmHg 76%
17:00 +2°C° 0.4 mm 5 mps 746 mmHg 88%
18:00 +2°C° 0.5 mm 5 mps 746 mmHg 90%
19:00 +2°C° 0.5 mm 5 mps 745 mmHg 91%
20:00 +1°C° 0.5 mm 5 mps 745 mmHg 92%
21:00 +1°C° 0.1 mm 5 mps 745 mmHg 92%
22:00 -1°C° 0.1 mm 6 mps 745 mmHg 92%
23:00 -1°C° 0.1 mm 6 mps 746 mmHg 92%
Mostrar más

Necesitamos Su Consentimiento

Meteoprog y nuestros Proveedores de Servicios pueden almacenar y acceder a sus datos personales como cookies, identificadores de dispositivo u otras tecnologías similares de su dispositivo y procesar dichos datos para personalizar contenido y anuncios, además de ofrecer funciones de redes sociales y analizar el tráfico.

  • Almacenar y/o acceder a información en su dispositivo

    Se puede almacenar o acceder a cookies, identificadores de dispositivo u otra información de su dispositivo para los fines anteriormente indicados.

  • Anuncios y contenido personalizados, medición de anuncios y contenido, percepciones del público, y desarrollo de productos

    Los anuncios y el contenido pueden personalizarse en base a su perfil. Se pueden añadir más datos para personalizar mejor los anuncios y contenidos. Se puede medir el rendimiento de los anuncios y contenidos. Se puede obtener la percepción sobre el público que ha visto los anuncios y contenidos. Dichos datos pueden usarse para desarrollar o mejorar la experiencia del usuario, sistemas y software.

Al hacer clic en ‘Estoy De Acuerdo’ usted permitirá el uso de las cookies, identificadores de dispositivo, balizas web u otras tecnologías similares indicadas. Su configuración puede cambiarse desde el navegador de su dispositivo.

Para ciertos fines, los intereses legítimos pueden ser considerados por encima del consentimiento. Puede leer más sobre ello en nuestra Política de Privacidad y Cookies.